map of ACZ home
ACZ - Airport
Location
City:  Zabol, Sistan va Baluchestan, Iran
ICAO:OIZB
IATA:ACZ

Details
Type:Airport (Aerodrome, Airfield)
Latitude:3105'54"N (31.098333)
Longitude:6132'38"E (61.543889)
Datum:WGS 1984
Elevation:1628 ft (496 m)
Variation:2.85E (WMM2015v2 magnetic declination)
0.06 annual change
Runways:1
Longest:9848 × 148 ft (3002 × 45 m), paved

Time
Time Zone:UTC+3:30 (DST+4:30)
Local Time:

Weather
METAR:OIZB 041400Z 00000KT 9999 FEW030CB FEW035TCU SCT090 11/08 Q1018

Related Locations
Nearby:
Farthest:IPC: 11833 mi / 19043 km
Easter Island (Isla de Pascua, Rapa Nui) [Mataveri Intl], VS, CL

Find:

   beyond  
but within

Other Information
Maps:
NOTAMs:
Links:
Sources:

  
  • flag of Iran
  

Sectional Chart

Flight Planning
at skyvector.com

Satellite Image

Google Maps Satellite view

 

Copyright © 2004-2019 Karl L. Swartz. All rights reserved.
The Great Circle Mapper name and logo are trademarks of the Great Circle Mapper.
All other trademarks mentioned herein belong to their respective owners.
Please see credits for attibutions and further copyright information.

  Follow gcmap on Facebook Follow gcmap on Twitter GCmap on LinkedIn

hCard Microformat

Geo Microformat